RH
81 74 92 100 100 100 100 91 100 62 35 36 43 54 44 46 28 22 25 21 21 22 31 47 67 70 80 90 78 75 68 61 52 48 46 46 44 44 47 51 54 57 60
70 70 74 93 92 98 100 100 94 66 76 72 42 54 77 76 46 20 23 25 19 19 23 31 52 69 71 83 86 84 78 75 66 56 50 51 49 48 45 49 57 65 61
52 62 60 67 81 92 100 100 99 77 68 38 35 64 76 86 84 71 39 36 32 20 21 24 33 51 68 79 89 92 90 90 84 71 61 56 53 54 53 56 62 68 84
49 47 54 58 76 75 93 98 100 97 68 62 33 44 73 70 76 72 81 59 48 35 27 25 27 32 57 79 87 92 94 92 94 89 74 66 56 55 57 62 75 98 100
44 44 43 49 67 84 74 86 87 100 100 85 55 41 82 100 100 93 90 83 79 70 57 45 34 27 37 59 83 93 100 98 94 95 93 83 74 70 67 68 89 100 100
40 40 40 45 47 69 61 67 82 99 93 72 49 30 56 100 94 76 80 82 87 95 96 77 60 44 34 42 66 91 96 99 98 95 97 97 98 100 97 96 100 100 100
35 34 37 38 41 44 47 58 68 82 100 75 58 36 38 50 55 55 62 84 74 95 92 96 86 82 76 44 45 63 85 91 96 99 98 100 100 100 100 100 100 100 100
38 33 33 38 40 37 37 44 64 86 93 93 66 56 45 38 38 33 35 91 100 100 100 96 99 98 97 91 66 66 70 90 99 98 100 100 100 100 100 100 100 100 100
31 33 33 35 35 34 31 34 48 62 75 74 67 55 48 30 33 38 26 54 93 98 98 81 88 93 100 100 100 85 78 79 99 100 95 100 100 100 100 100 100 100 100
22 25 28 28 30 31 29 28 33 54 61 66 67 58 46 34 27 41 30 27 56 76 93 88 78 86 97 100 100 100 90 89 80 100 100 100 100 100 100 100 100 100 100
22 22 21 21 24 29 30 28 26 32 40 47 54 49 42 29 33 37 34 28 33 74 68 78 78 74 79 100 100 100 100 83 88 90 97 100 100 100 100 100 100 100 100
25 27 26 25 28 29 27 24 24 26 31 35 33 39 44 35 30 35 35 29 49 100 100 88 69 69 65 93 100 100 94 96 82 92 100 100 100 100 100 100 100 100 100
22 24 25 26 26 23 25 28 26 27 26 26 27 26 32 29 27 29 33 31 62 100 100 94 82 86 70 72 84 98 93 93 100 100 100 100 100 100 100 100 100 100 100
16 17 19 19 20 27 29 25 22 23 23 24 25 27 32 30 22 28 30 28 49 100 100 100 100 91 78 84 72 66 86 95 100 100 100 100 100 100 100 100 100 100 100
16 16 18 20 23 24 23 20 21 25 27 28 28 31 28 24 21 26 33 24 26 100 100 100 100 100 100 100 84 72 76 86 91 100 100 100 100 100 100 100 100 100 100
17 17 17 18 20 22 27 25 29 31 33 32 34 32 27 25 24 26 31 26 25 39 100 100 100 100 100 98 100 100 100 100 100 100 100 100 100 100 100 100 100 100 100
14 16 19 25 25 27 30 27 26 33 29 26 26 31 32 30 26 29 31 27 26 26 78 100 100 100 92 95 99 100 100 100 91 95 100 100 100 100 100 100 100 100 100
18 18 20 28 33 26 25 23 24 29 27 27 33 36 32 28 27 27 28 25 24 23 27 96 100 100 100 100 100 100 100 100 100 100 100 100 99 100 100 100 100 100 100
18 20 21 23 28 31 30 33 31 32 29 29 29 30 28 27 25 31 27 27 24 24 25 24 87 100 100 100 100 100 100 100 100 100 100 100 100 100 100 100 100 100 100
21 19 21 24 28 29 33 34 28 24 25 27 33 32 28 27 31 33 28 22 24 26 28 27 36 98 100 100 100 100 100 100 100 100 100 100 100 100 100 100 100 96 87
20 19 22 25 28 31 29 32 40 34 32 34 41 39 40 36 31 28 27 18 25 32 39 45 90 100 100 100 100 100 100 100 100 100 100 100 100 100 100 99 100 94 78
21 23 27 31 36 38 39 40 44 47 48 43 36 33 32 29 26 29 31 34 28 26 50 96 100 100 100 100 100 100 100 100 100 100 100 100 100 100 100 100 97 91 91
27 27 30 34 39 41 43 42 34 30 29 27 28 29 32 34 33 34 34 33 30 31 30 41 90 100 100 100 100 100 100 100 100 100 100 100 100 100 100 100 100 91 86
29 30 32 31 31 30 29 28 27 28 30 32 33 34 29 32 30 33 33 30 31 34 36 43 44 41 44 48 53 76 100 100 100 100 100 100 100 100 100 100 99 95 90
31 31 31 30 31 33 34 32 31 32 32 36 35 30 28 31 33 30 33 27 36 38 50 72 70 54 50 58 68 90 100 100 100 100 100 100 100 100 100 100 100 98 88
50 44 43 42 42 40 44 47 40 39 36 38 32 25 24 23 25 27 38 42 49 50 70 72 69 74 75 69 61 71 100 100 100 100 100 100 100 100 100 100 100 98 92
Wind_Speed
83 81 79 78 77 72 70 65 60 57 63 67 66 69 73 75 74 72 74 73 70 67 65 64 62 58 55 54 53 52 52 52 51 51 50 49 48 48 48 47 47 47 48
91 86 82 82 79 77 73 73 70 65 63 64 66 66 69 71 74 75 73 72 73 70 68 67 65 63 58 55 54 54 52 53 53 53 53 52 52 52 52 51 51 51 52
92 92 86 83 86 83 78 75 76 69 66 62 64 66 67 70 70 70 73 73 73 74 71 68 67 67 63 59 56 55 54 53 54 54 54 54 54 54 54 54 54 54 55
98 95 89 88 87 87 86 83 78 78 68 68 65 65 72 62 71 77 76 74 74 74 73 72 69 67 67 63 59 57 56 55 54 54 55 56 56 56 56 56 55 55 53
103 100 95 92 94 94 94 90 85 80 77 73 70 65 66 55 69 80 78 75 73 72 74 73 72 68 69 69 64 62 58 57 56 56 56 57 57 57 58 58 58 57 57
104 102 100 96 96 97 98 96 88 82 86 79 71 68 74 74 77 75 79 79 75 74 72 71 70 70 70 71 70 66 63 60 58 58 57 58 59 59 59 59 59 58 58
102 101 100 98 97 99 99 98 93 89 84 85 78 71 70 79 79 82 77 78 79 76 75 72 71 69 68 69 72 72 68 64 61 60 60 59 58 57 57 58 59 60 62
98 99 99 99 101 101 100 100 98 96 91 86 83 77 75 74 71 80 82 79 78 78 78 77 75 72 68 67 70 73 72 69 66 64 63 62 61 60 61 61 62 64 66
98 98 100 100 101 100 98 98 101 99 97 90 86 83 79 77 70 70 82 85 83 82 82 81 76 73 69 68 68 71 75 74 71 67 65 65 65 64 64 65 67 69 70
90 95 97 98 98 97 97 96 98 102 102 95 91 88 82 76 73 68 78 85 87 87 86 85 80 75 71 68 70 70 75 78 76 72 68 67 68 69 70 72 73 74 77
84 90 93 92 92 93 93 94 96 99 100 97 95 89 84 76 73 71 76 83 85 87 91 90 87 83 77 70 70 73 76 77 78 78 74 71 70 72 73 75 77 79 82
77 82 86 85 85 85 87 89 90 91 94 94 91 88 87 81 77 74 77 83 81 88 91 88 85 83 79 74 70 73 75 78 78 80 78 77 76 75 76 79 82 84 85
72 76 80 78 80 80 81 82 83 83 87 87 86 84 83 80 78 75 78 84 86 93 91 90 89 86 84 79 73 72 74 74 79 81 82 80 79 79 81 83 84 85 86
70 72 74 74 73 74 79 81 78 78 80 80 79 80 80 81 77 75 82 85 90 93 93 89 88 87 83 80 77 76 75 74 75 79 82 82 82 84 85 86 87 88 91
63 67 67 68 68 71 75 75 72 73 74 76 76 77 80 79 75 75 82 86 87 96 95 91 90 84 83 80 79 79 78 77 77 75 79 81 84 87 87 92 92 93 98
56 58 59 63 65 69 73 72 69 71 73 74 75 76 75 73 73 74 82 85 88 93 97 92 93 90 87 83 78 76 77 72 71 75 76 78 79 82 91 95 96 99 102
52 54 55 56 60 67 71 70 68 71 72 71 72 71 71 73 73 76 80 83 87 90 98 100 97 94 92 84 79 78 78 78 79 81 76 78 82 86 87 90 93 96 98
47 47 51 56 59 62 65 65 65 67 68 66 66 67 68 68 68 72 77 81 85 88 94 101 99 97 93 88 81 79 76 76 80 83 83 86 84 86 88 88 89 94 98
43 44 47 51 57 61 61 62 63 62 62 63 62 62 63 66 67 69 74 77 82 85 90 90 101 104 95 88 81 78 77 80 80 84 87 88 86 89 91 94 99 99 103
41 43 47 52 56 59 60 58 57 57 56 56 58 59 60 64 64 65 68 75 77 82 89 87 92 98 95 90 86 81 77 80 82 89 92 92 96 96 97 99 102 105 108
42 44 48 51 54 56 55 55 54 52 50 52 55 56 58 60 60 60 64 64 68 80 86 88 91 95 91 96 85 85 89 90 88 88 92 93 96 98 102 104 106 109 109
43 46 45 46 47 48 47 47 47 47 48 50 51 54 56 57 56 59 60 60 63 70 83 89 93 96 101 103 98 93 89 92 93 95 97 100 100 102 107 112 117 114 116
38 40 42 42 42 42 43 44 45 47 46 47 47 50 51 52 53 56 55 58 63 65 70 80 90 95 102 104 105 100 96 95 91 95 97 102 103 106 112 114 117 119 119
36 37 38 39 39 38 40 42 45 45 43 42 43 45 46 50 52 54 53 56 62 67 71 76 81 83 89 94 100 101 103 101 97 97 98 104 107 109 110 114 118 121 124
34 34 35 34 34 34 35 36 36 37 39 38 43 42 43 47 50 52 56 56 57 63 69 73 78 84 86 88 92 98 100 104 104 105 106 110 109 112 115 118 121 126 129
30 30 30 31 33 33 33 33 36 37 40 41 42 43 43 47 51 53 57 56 60 63 68 72 77 79 83 89 93 94 100 106 109 110 108 111 115 119 124 126 129 134 134
Wind_Direction
233 232 233 234 238 241 243 241 242 237 238 237 238 235 236 237 237 235 235 237 239 239 239 240 243 244 244 246 248 250 252 254 255 257 260 262 264 267 270 273 274 277 278
234 232 232 236 236 237 239 244 242 239 233 236 235 236 236 238 238 237 236 237 239 240 241 241 241 244 245 246 248 250 252 253 254 256 259 262 264 267 269 272 276 277 279
236 233 229 234 237 236 237 239 242 239 236 234 234 234 236 236 239 240 239 238 239 239 240 241 241 244 245 245 247 250 252 253 255 256 258 261 264 266 268 271 276 278 279
234 233 231 230 235 236 236 236 238 241 238 239 229 232 234 241 241 236 236 236 236 237 240 241 241 242 244 245 246 248 252 254 255 257 259 260 262 265 267 271 277 279 279
234 231 230 230 230 235 235 236 235 238 240 239 234 225 222 231 238 237 236 238 239 240 240 241 242 242 244 245 245 247 250 253 256 257 259 262 264 266 269 272 275 275 276
230 229 229 228 230 232 234 234 235 235 239 238 236 229 221 228 237 235 236 237 237 241 240 242 243 242 244 246 246 247 248 251 254 258 260 263 265 267 270 271 271 273 275
229 228 227 227 229 231 233 233 233 235 237 239 238 234 228 228 236 236 236 236 237 239 241 241 242 243 244 247 250 249 250 250 253 255 258 262 265 266 266 268 272 274 277
227 227 225 226 228 229 232 232 232 234 235 236 238 238 236 231 231 237 235 235 236 236 238 240 242 243 246 246 249 250 250 251 251 254 256 259 263 266 266 268 272 274 276
225 226 226 225 227 229 231 232 232 233 236 236 237 238 238 233 233 233 235 233 235 237 238 239 239 241 244 248 250 252 252 251 251 253 256 259 261 265 268 270 272 273 275
226 227 226 226 227 228 230 231 231 231 234 236 237 238 238 237 231 232 234 233 234 237 239 239 239 239 242 244 248 250 252 252 253 253 254 258 261 265 268 271 272 274 275
224 226 226 225 225 227 230 231 231 232 233 235 238 240 242 239 237 232 233 234 235 237 240 241 241 242 242 243 246 248 251 253 254 254 254 255 259 263 267 271 273 274 275
220 222 223 222 224 226 229 230 229 232 233 234 237 239 240 239 238 233 231 234 231 232 237 239 241 241 244 243 243 248 250 252 255 255 256 259 259 261 265 267 270 273 276
216 220 222 220 221 222 225 227 228 229 231 234 235 236 237 238 235 231 230 231 227 231 234 236 239 241 243 244 243 245 249 252 253 256 256 258 261 264 266 269 272 275 276
218 219 220 220 217 218 222 225 225 226 229 231 233 233 234 235 233 229 230 230 228 230 234 238 242 243 246 244 247 249 250 251 253 256 258 260 261 264 266 269 271 273 274
216 218 219 219 217 217 221 224 223 223 225 227 229 231 233 235 234 230 230 232 231 227 233 234 237 239 242 246 252 254 252 253 255 255 258 260 263 264 267 268 270 272 272
213 215 216 217 214 216 219 221 220 222 223 224 226 229 232 234 232 232 229 233 233 231 232 234 238 240 244 245 248 251 254 255 255 258 261 264 268 269 267 269 272 274 276
209 211 212 214 215 216 219 221 220 221 225 226 228 229 230 233 232 230 230 233 234 233 230 233 237 243 246 245 247 248 252 254 260 260 257 262 263 267 272 274 274 276 277
209 208 209 209 212 218 220 222 222 222 225 227 226 228 232 235 234 233 232 234 234 234 235 233 236 242 244 248 248 249 256 257 258 260 261 262 265 269 272 275 277 278 279
204 202 204 208 209 215 218 219 221 222 224 226 227 229 231 233 234 233 233 235 236 236 236 237 235 241 244 246 249 252 255 256 260 262 262 264 266 267 269 272 275 280 280
199 197 201 203 208 213 216 217 222 225 225 226 228 228 229 231 231 233 235 237 235 235 238 240 238 239 242 244 247 249 252 260 262 261 262 264 266 268 270 274 277 281 283
195 196 199 202 205 211 215 217 220 223 222 221 222 225 228 231 232 232 237 239 234 234 237 240 237 239 240 244 248 249 254 261 260 262 262 264 267 271 272 275 280 284 285
192 194 198 203 206 209 212 213 216 219 219 223 224 225 227 230 231 230 232 236 236 236 234 235 237 240 242 244 247 251 255 259 259 262 263 267 269 273 275 278 281 284 286
194 194 195 198 204 206 209 211 216 219 219 222 224 225 226 228 229 231 231 231 233 235 236 237 239 243 245 247 248 248 252 257 261 264 268 271 272 275 279 282 283 285 285
194 195 195 198 201 203 206 208 212 216 219 224 225 227 227 226 228 228 232 230 230 232 234 238 241 244 246 246 247 247 249 253 260 261 266 273 276 279 280 283 285 285 287
191 192 194 196 199 202 207 212 215 216 219 223 224 224 226 223 226 228 229 233 232 232 234 237 241 243 245 246 247 248 250 252 256 262 266 269 273 277 280 283 283 285 287
184 189 191 195 198 202 206 211 214 214 214 216 221 223 223 222 224 228 229 233 236 235 234 238 242 245 246 248 249 250 250 252 257 261 265 270 273 276 277 282 282 284 286